contact:dominique.lefevre@mio.osupytheas.fr, maurice.libes@osupytheas.fr, didier.mallarino@osupytheas.fr
Project:EMSO http://www.emso-fr.org/EMSO-France
Depth: 2436.0 m
Title:EMSO Ligure Ouest : Data MII capteur MICROCAT
DateTime_Computer,Latitude,Longitude,Temperature,Conductivity,Pressure,DateTime_Instrument
DateTime_Computer,Latitude,Longitude,degC,S m-1,dbar,DateTime_Instrument
2021-01-27T00:02:56Z,42.805,6.029,13.2988,4.59995,2470.04,2021-1-27T02:03:58Z
2021-01-27T00:05:59Z,42.805,6.029,13.2986,4.59992,2470.04,2021-1-27T02:07:01Z
2021-01-27T00:09:02Z,42.805,6.029,13.2986,4.59996,2470.017,2021-1-27T02:10:04Z
2021-01-27T00:12:05Z,42.805,6.029,13.2986,4.59993,2470.053,2021-1-27T02:13:07Z
2021-01-27T00:15:08Z,42.805,6.029,13.2984,4.59996,2470.063,2021-1-27T02:16:10Z
2021-01-27T00:18:11Z,42.805,6.029,13.2984,4.59992,2470.04,2021-1-27T02:19:14Z
2021-01-27T00:21:14Z,42.805,6.029,13.2988,4.59994,2470.04,2021-1-27T02:22:17Z
2021-01-27T00:24:17Z,42.805,6.029,13.2990,4.59998,2470.053,2021-1-27T02:25:20Z
2021-01-27T00:27:21Z,42.805,6.029,13.2986,4.59993,2470.063,2021-1-27T02:28:23Z
2021-01-27T00:30:24Z,42.805,6.029,13.2986,4.59998,2470.04,2021-1-27T02:31:26Z
2021-01-27T00:33:27Z,42.805,6.029,13.2986,4.60001,2470.04,2021-1-27T02:34:29Z
2021-01-27T00:36:30Z,42.805,6.029,13.2990,4.59994,2470.063,2021-1-27T02:37:32Z
2021-01-27T00:39:33Z,42.805,6.029,13.2983,4.59994,2470.017,2021-1-27T02:40:35Z
2021-01-27T00:42:36Z,42.805,6.029,13.2988,4.59995,2470.063,2021-1-27T02:43:39Z
2021-01-27T00:45:39Z,42.805,6.029,13.2985,4.59997,2470.053,2021-1-27T02:46:42Z
2021-01-27T00:48:43Z,42.805,6.029,13.2983,4.59996,2470.077,2021-1-27T02:49:45Z
2021-01-27T00:51:46Z,42.805,6.029,13.2990,4.59996,2470.053,2021-1-27T02:52:48Z
2021-01-27T00:54:49Z,42.805,6.029,13.2988,4.59994,2470.04,2021-1-27T02:55:51Z
2021-01-27T00:57:52Z,42.805,6.029,13.2990,4.59993,2470.063,2021-1-27T02:58:54Z
2021-01-27T01:00:55Z,42.805,6.029,13.2987,4.60000,2470.063,2021-1-27T03:01:57Z
2021-01-27T01:03:58Z,42.805,6.029,13.2984,4.59994,2470.087,2021-1-27T03:05:00Z
2021-01-27T01:07:01Z,42.805,6.029,13.2992,4.60000,2470.04,2021-1-27T03:08:04Z
2021-01-27T01:10:04Z,42.805,6.029,13.2984,4.59999,2470.063,2021-1-27T03:11:07Z
2021-01-27T01:13:07Z,42.805,6.029,13.2988,4.59996,2470.063,2021-1-27T03:14:10Z
2021-01-27T01:16:11Z,42.805,6.029,13.2990,4.59996,2470.063,2021-1-27T03:17:13Z
2021-01-27T01:19:14Z,42.805,6.029,13.2986,4.59991,2470.063,2021-1-27T03:20:16Z
2021-01-27T01:22:17Z,42.805,6.029,13.2986,4.59999,2470.087,2021-1-27T03:23:19Z
2021-01-27T01:25:20Z,42.805,6.029,13.2991,4.60001,2470.077,2021-1-27T03:26:22Z
2021-01-27T01:28:23Z,42.805,6.029,13.2986,4.59996,2470.077,2021-1-27T03:29:25Z
2021-01-27T01:31:26Z,42.805,6.029,13.2986,4.59992,2470.04,2021-1-27T03:32:29Z
2021-01-27T01:34:29Z,42.805,6.029,13.2985,4.60003,2470.087,2021-1-27T03:35:32Z
2021-01-27T01:37:32Z,42.805,6.029,13.2986,4.59996,2470.053,2021-1-27T03:38:35Z
2021-01-27T01:40:36Z,42.805,6.029,13.2990,4.60008,2470.087,2021-1-27T03:41:38Z
2021-01-27T01:43:39Z,42.805,6.029,13.2983,4.59994,2470.077,2021-1-27T03:44:41Z
2021-01-27T01:46:42Z,42.805,6.029,13.2990,4.59996,2470.063,2021-1-27T03:47:44Z
2021-01-27T01:49:45Z,42.805,6.029,13.2984,4.60002,2470.063,2021-1-27T03:50:47Z
2021-01-27T01:52:48Z,42.805,6.029,13.2985,4.59996,2470.063,2021-1-27T03:53:50Z
2021-01-27T01:55:51Z,42.805,6.029,13.2986,4.59991,2470.1,2021-1-27T03:56:54Z
2021-01-27T01:58:54Z,42.805,6.029,13.2984,4.59991,2470.087,2021-1-27T03:59:57Z
2021-01-27T02:01:57Z,42.805,6.029,13.2989,4.59996,2470.063,2021-1-27T04:03:00Z
2021-01-27T02:05:01Z,42.805,6.029,13.2990,4.59997,2470.11,2021-1-27T04:06:03Z
2021-01-27T02:08:04Z,42.805,6.029,13.2986,4.59997,2470.1,2021-1-27T04:09:06Z
2021-01-27T02:11:07Z,42.805,6.029,13.2989,4.59995,2470.124,2021-1-27T04:12:09Z
2021-01-27T02:14:10Z,42.805,6.029,13.2984,4.59995,2470.1,2021-1-27T04:15:12Z
2021-01-27T02:17:13Z,42.805,6.029,13.2989,4.59994,2470.11,2021-1-27T04:18:15Z
2021-01-27T02:20:16Z,42.805,6.029,13.2990,4.59993,2470.133,2021-1-27T04:21:19Z
2021-01-27T02:23:19Z,42.805,6.029,13.2986,4.59994,2470.063,2021-1-27T04:24:22Z
2021-01-27T02:26:22Z,42.805,6.029,13.2986,4.59996,2470.087,2021-1-27T04:27:25Z
2021-01-27T02:29:26Z,42.805,6.029,13.2987,4.59994,2470.11,2021-1-27T04:30:28Z
2021-01-27T02:32:29Z,42.805,6.029,13.2988,4.59994,2470.087,2021-1-27T04:33:31Z
2021-01-27T02:35:32Z,42.805,6.029,13.2988,4.59995,2470.124,2021-1-27T04:36:34Z
2021-01-27T02:38:35Z,42.805,6.029,13.2987,4.59996,2470.133,2021-1-27T04:39:37Z
2021-01-27T02:41:38Z,42.805,6.029,13.2987,4.59994,2470.133,2021-1-27T04:42:40Z
2021-01-27T02:44:41Z,42.805,6.029,13.2984,4.59995,2470.087,2021-1-27T04:45:44Z
2021-01-27T02:47:44Z,42.805,6.029,13.2991,4.59996,2470.147,2021-1-27T04:48:47Z
2021-01-27T02:50:47Z,42.805,6.029,13.2993,4.59997,2470.171,2021-1-27T04:51:50Z
2021-01-27T02:53:51Z,42.805,6.029,13.2986,4.59997,2470.147,2021-1-27T04:54:53Z
2021-01-27T02:56:54Z,42.805,6.029,13.2989,4.59994,2470.171,2021-1-27T04:57:56Z
2021-01-27T02:59:57Z,42.805,6.029,13.2983,4.59993,2470.147,2021-1-27T05:00:59Z
2021-01-27T03:03:00Z,42.805,6.029,13.2983,4.59995,2470.133,2021-1-27T05:04:02Z
2021-01-27T03:06:03Z,42.805,6.029,13.2984,4.59994,2470.156,2021-1-27T05:07:05Z
2021-01-27T03:09:06Z,42.805,6.029,13.2990,4.59998,2470.11,2021-1-27T05:10:08Z
2021-01-27T03:12:09Z,42.805,6.029,13.2986,4.59998,2470.11,2021-1-27T05:13:12Z
2021-01-27T03:15:12Z,42.805,6.029,13.2984,4.59995,2470.133,2021-1-27T05:16:15Z
2021-01-27T03:18:16Z,42.805,6.029,13.2988,4.59994,2470.156,2021-1-27T05:19:18Z
2021-01-27T03:21:19Z,42.805,6.029,13.2994,4.59999,2470.171,2021-1-27T05:22:21Z
2021-01-27T03:24:22Z,42.805,6.029,13.2996,4.60012,2470.171,2021-1-27T05:25:24Z
2021-01-27T03:27:25Z,42.805,6.029,13.2986,4.59997,2470.156,2021-1-27T05:28:27Z
2021-01-27T03:30:28Z,42.805,6.029,13.2989,4.60001,2470.171,2021-1-27T05:31:30Z
2021-01-27T03:33:31Z,42.805,6.029,13.2985,4.59993,2470.203,2021-1-27T05:34:33Z
2021-01-27T03:36:34Z,42.805,6.029,13.2986,4.59992,2470.18,2021-1-27T05:37:37Z
2021-01-27T03:39:37Z,42.805,6.029,13.2991,4.59998,2470.156,2021-1-27T05:40:40Z
2021-01-27T03:42:41Z,42.805,6.029,13.2993,4.60006,2470.171,2021-1-27T05:43:43Z
2021-01-27T03:45:44Z,42.805,6.029,13.2990,4.60000,2470.156,2021-1-27T05:46:46Z
2021-01-27T03:48:47Z,42.805,6.029,13.2990,4.59998,2470.156,2021-1-27T05:49:49Z
2021-01-27T03:51:50Z,42.805,6.029,13.2984,4.60005,2470.24,2021-1-27T05:52:52Z
2021-01-27T03:54:53Z,42.805,6.029,13.2988,4.60002,2470.24,2021-1-27T05:55:55Z
2021-01-27T03:57:56Z,42.805,6.029,13.2988,4.59995,2470.227,2021-1-27T05:58:58Z
2021-01-27T04:00:59Z,42.805,6.029,13.2991,4.59993,2470.203,2021-1-27T06:02:02Z
2021-01-27T04:04:02Z,42.805,6.029,13.2985,4.59996,2470.217,2021-1-27T06:05:05Z
2021-01-27T04:07:05Z,42.805,6.029,13.2986,4.60006,2470.217,2021-1-27T06:08:08Z
2021-01-27T04:10:09Z,42.805,6.029,13.2985,4.59994,2470.264,2021-1-27T06:11:11Z
2021-01-27T04:13:12Z,42.805,6.029,13.2990,4.60001,2470.227,2021-1-27T06:14:14Z
2021-01-27T04:16:15Z,42.805,6.029,13.2991,4.59996,2470.227,2021-1-27T06:17:17Z
2021-01-27T04:19:18Z,42.805,6.029,13.2991,4.59998,2470.24,2021-1-27T06:20:20Z
2021-01-27T04:22:21Z,42.805,6.029,13.2990,4.59996,2470.217,2021-1-27T06:23:23Z
2021-01-27T04:25:24Z,42.805,6.029,13.2990,4.59996,2470.203,2021-1-27T06:26:27Z
2021-01-27T04:28:27Z,42.805,6.029,13.2986,4.60009,2470.24,2021-1-27T06:29:30Z
2021-01-27T04:31:31Z,42.805,6.029,13.2988,4.59997,2470.25,2021-1-27T06:32:33Z
2021-01-27T04:34:34Z,42.805,6.029,13.2989,4.59996,2470.25,2021-1-27T06:35:36Z
2021-01-27T04:37:37Z,42.805,6.029,13.2987,4.59994,2470.203,2021-1-27T06:38:39Z
2021-01-27T04:40:40Z,42.805,6.029,13.2991,4.59999,2470.264,2021-1-27T06:41:42Z
2021-01-27T04:43:43Z,42.805,6.029,13.2989,4.59994,2470.25,2021-1-27T06:44:45Z
2021-01-27T04:46:46Z,42.805,6.029,13.2990,4.59996,2470.273,2021-1-27T06:47:48Z
2021-01-27T04:49:49Z,42.805,6.029,13.2989,4.59995,2470.24,2021-1-27T06:50:52Z
2021-01-27T04:52:52Z,42.805,6.029,13.2983,4.59996,2470.25,2021-1-27T06:53:55Z
2021-01-27T04:55:55Z,42.805,6.029,13.2990,4.59994,2470.273,2021-1-27T06:56:58Z
2021-01-27T04:58:59Z,42.805,6.029,13.2992,4.60011,2470.25,2021-1-27T07:00:01Z
2021-01-27T05:02:02Z,42.805,6.029,13.2988,4.59999,2470.24,2021-1-27T07:03:04Z
2021-01-27T05:05:05Z,42.805,6.029,13.2990,4.59998,2470.273,2021-1-27T07:06:07Z
2021-01-27T05:08:08Z,42.805,6.029,13.2983,4.59996,2470.26,2021-1-27T07:09:10Z
2021-01-27T05:11:11Z,42.805,6.029,13.2993,4.59999,2470.273,2021-1-27T07:12:13Z
2021-01-27T05:14:14Z,42.805,6.029,13.2986,4.59998,2470.32,2021-1-27T07:15:17Z
2021-01-27T05:17:17Z,42.805,6.029,13.2988,4.60005,2470.273,2021-1-27T07:18:20Z
2021-01-27T05:20:20Z,42.805,6.029,13.2992,4.60009,2470.227,2021-1-27T07:21:23Z
2021-01-27T05:23:24Z,42.805,6.029,13.2991,4.59999,2470.264,2021-1-27T07:24:26Z
2021-01-27T05:26:27Z,42.805,6.029,13.2998,4.60016,2470.287,2021-1-27T07:27:29Z
2021-01-27T05:29:30Z,42.805,6.029,13.2986,4.60000,2470.273,2021-1-27T07:30:32Z
2021-01-27T05:32:33Z,42.805,6.029,13.2990,4.60004,2470.297,2021-1-27T07:33:35Z
2021-01-27T05:35:36Z,42.805,6.029,13.2991,4.60012,2470.297,2021-1-27T07:36:38Z
2021-01-27T05:38:39Z,42.805,6.029,13.2989,4.60006,2470.236,2021-1-27T07:39:42Z
2021-01-27T05:41:42Z,42.805,6.029,13.2989,4.60005,2470.31,2021-1-27T07:42:45Z
2021-01-27T05:44:45Z,42.805,6.029,13.2993,4.60011,2470.273,2021-1-27T07:45:48Z
2021-01-27T05:47:49Z,42.805,6.029,13.2993,4.60004,2470.264,2021-1-27T07:48:51Z
2021-01-27T05:50:52Z,42.805,6.029,13.3001,4.60011,2470.297,2021-1-27T07:51:54Z
2021-01-27T05:53:55Z,42.805,6.029,13.2989,4.60009,2470.31,2021-1-27T07:54:57Z
2021-01-27T05:56:58Z,42.805,6.029,13.2990,4.60008,2470.297,2021-1-27T07:58:00Z
2021-01-27T06:00:01Z,42.805,6.029,13.2993,4.60019,2470.297,2021-1-27T08:01:03Z
2021-01-27T06:03:04Z,42.805,6.029,13.3003,4.60025,2470.31,2021-1-27T08:04:07Z
2021-01-27T06:06:07Z,42.805,6.029,13.2987,4.60008,2470.334,2021-1-27T08:07:10Z
2021-01-27T06:09:10Z,42.805,6.029,13.2991,4.60011,2470.334,2021-1-27T08:10:13Z
2021-01-27T06:12:14Z,42.805,6.029,13.2986,4.60008,2470.297,2021-1-27T08:13:16Z
2021-01-27T06:15:17Z,42.805,6.029,13.2995,4.60003,2470.31,2021-1-27T08:16:19Z
2021-01-27T06:18:20Z,42.805,6.029,13.3004,4.60017,2470.32,2021-1-27T08:19:22Z
2021-01-27T06:21:23Z,42.805,6.029,13.2993,4.60013,2470.334,2021-1-27T08:22:25Z
2021-01-27T06:24:26Z,42.805,6.029,13.2988,4.60001,2470.31,2021-1-27T08:25:28Z
2021-01-27T06:27:29Z,42.805,6.029,13.2986,4.60003,2470.273,2021-1-27T08:28:31Z
2021-01-27T06:30:32Z,42.805,6.029,13.2993,4.60001,2470.32,2021-1-27T08:31:35Z
2021-01-27T06:33:35Z,42.805,6.029,13.2994,4.60008,2470.32,2021-1-27T08:34:38Z
2021-01-27T06:36:38Z,42.805,6.029,13.2991,4.60004,2470.32,2021-1-27T08:37:41Z
2021-01-27T06:39:42Z,42.805,6.029,13.3001,4.60013,2470.31,2021-1-27T08:40:44Z
2021-01-27T06:42:45Z,42.805,6.029,13.2992,4.60007,2470.297,2021-1-27T08:43:47Z
2021-01-27T06:45:48Z,42.805,6.029,13.2988,4.60000,2470.343,2021-1-27T08:46:50Z
2021-01-27T06:48:51Z,42.805,6.029,13.2989,4.60001,2470.297,2021-1-27T08:49:53Z
2021-01-27T06:51:54Z,42.805,6.029,13.2996,4.60010,2470.31,2021-1-27T08:52:57Z
2021-01-27T06:54:57Z,42.805,6.029,13.2991,4.60014,2470.32,2021-1-27T08:56:00Z
2021-01-27T06:58:00Z,42.805,6.029,13.2993,4.60010,2470.31,2021-1-27T08:59:03Z
2021-01-27T07:01:03Z,42.805,6.029,13.2992,4.60006,2470.31,2021-1-27T09:02:06Z
2021-01-27T07:04:07Z,42.805,6.029,13.2995,4.60017,2470.287,2021-1-27T09:05:09Z
2021-01-27T07:07:10Z,42.805,6.029,13.3002,4.60023,2470.32,2021-1-27T09:08:12Z
2021-01-27T07:10:13Z,42.805,6.029,13.3000,4.60017,2470.357,2021-1-27T09:11:15Z
2021-01-27T07:13:16Z,42.805,6.029,13.2992,4.60016,2470.32,2021-1-27T09:14:18Z
2021-01-27T07:16:19Z,42.805,6.029,13.3003,4.60027,2470.31,2021-1-27T09:17:21Z
2021-01-27T07:19:22Z,42.805,6.029,13.3004,4.60029,2470.32,2021-1-27T09:20:25Z
2021-01-27T07:22:25Z,42.805,6.029,13.3012,4.60016,2470.32,2021-1-27T09:23:28Z
2021-01-27T07:25:28Z,42.805,6.029,13.3004,4.60024,2470.297,2021-1-27T09:26:31Z
2021-01-27T07:28:32Z,42.805,6.029,13.2990,4.60003,2470.32,2021-1-27T09:29:34Z
2021-01-27T07:31:35Z,42.805,6.029,13.3008,4.60021,2470.32,2021-1-27T09:32:37Z
2021-01-27T07:34:38Z,42.805,6.029,13.2992,4.60012,2470.334,2021-1-27T09:35:40Z
2021-01-27T07:37:41Z,42.805,6.029,13.2991,4.60002,2470.334,2021-1-27T09:38:43Z
2021-01-27T07:40:44Z,42.805,6.029,13.2993,4.60021,2470.334,2021-1-27T09:41:46Z
2021-01-27T07:43:47Z,42.805,6.029,13.3006,4.60031,2470.357,2021-1-27T09:44:50Z
2021-01-27T07:46:50Z,42.805,6.029,13.2995,4.60008,2470.297,2021-1-27T09:47:53Z
2021-01-27T07:49:53Z,42.805,6.029,13.2993,4.60001,2470.32,2021-1-27T09:50:56Z
2021-01-27T07:52:57Z,42.805,6.029,13.2993,4.60009,2470.334,2021-1-27T09:53:59Z
2021-01-27T07:56:00Z,42.805,6.029,13.2993,4.59999,2470.31,2021-1-27T09:57:02Z
2021-01-27T07:59:03Z,42.805,6.029,13.2991,4.60001,2470.334,2021-1-27T10:00:05Z
2021-01-27T08:02:06Z,42.805,6.029,13.3009,4.60020,2470.297,2021-1-27T10:03:08Z
2021-01-27T08:05:09Z,42.805,6.029,13.3000,4.60017,2470.287,2021-1-27T10:06:11Z
2021-01-27T08:08:12Z,42.805,6.029,13.2994,4.60010,2470.273,2021-1-27T10:09:15Z
2021-01-27T08:11:15Z,42.805,6.029,13.3004,4.60026,2470.297,2021-1-27T10:12:18Z
2021-01-27T08:14:18Z,42.805,6.029,13.3004,4.60019,2470.26,2021-1-27T10:15:21Z
2021-01-27T08:17:22Z,42.805,6.029,13.3001,4.60020,2470.297,2021-1-27T10:18:24Z
2021-01-27T08:20:25Z,42.805,6.029,13.2991,4.60000,2470.287,2021-1-27T10:21:27Z
2021-01-27T08:23:28Z,42.805,6.029,13.2999,4.60011,2470.297,2021-1-27T10:24:30Z
2021-01-27T08:26:31Z,42.805,6.029,13.2995,4.60007,2470.273,2021-1-27T10:27:33Z
2021-01-27T08:29:34Z,42.805,6.029,13.2991,4.60006,2470.273,2021-1-27T10:30:36Z
2021-01-27T08:32:37Z,42.805,6.029,13.2988,4.60002,2470.32,2021-1-27T10:33:40Z
2021-01-27T08:35:40Z,42.805,6.029,13.2992,4.60019,2470.297,2021-1-27T10:36:43Z
2021-01-27T08:38:43Z,42.805,6.029,13.2998,4.60009,2470.31,2021-1-27T10:39:46Z
2021-01-27T08:41:47Z,42.805,6.029,13.2994,4.60010,2470.306,2021-1-27T10:42:49Z
2021-01-27T08:44:50Z,42.805,6.029,13.2986,4.60003,2470.287,2021-1-27T10:45:52Z
2021-01-27T08:47:53Z,42.805,6.029,13.3000,4.60019,2470.273,2021-1-27T10:48:55Z
2021-01-27T08:50:56Z,42.805,6.029,13.2991,4.60016,2470.32,2021-1-27T10:51:58Z
2021-01-27T08:53:59Z,42.805,6.029,13.2991,4.60021,2470.273,2021-1-27T10:55:01Z
2021-01-27T08:57:02Z,42.805,6.029,13.2993,4.60020,2470.287,2021-1-27T10:58:05Z
2021-01-27T09:00:05Z,42.805,6.029,13.2991,4.60003,2470.273,2021-1-27T11:01:08Z
2021-01-27T09:03:08Z,42.805,6.029,13.2993,4.60011,2470.31,2021-1-27T11:04:11Z
2021-01-27T09:06:12Z,42.805,6.029,13.2993,4.60008,2470.297,2021-1-27T11:07:14Z
2021-01-27T09:09:15Z,42.805,6.029,13.2993,4.60003,2470.297,2021-1-27T11:10:17Z
2021-01-27T09:12:18Z,42.805,6.029,13.2993,4.60006,2470.297,2021-1-27T11:13:20Z
2021-01-27T09:15:21Z,42.805,6.029,13.2990,4.60001,2470.297,2021-1-27T11:16:23Z
2021-01-27T09:18:24Z,42.805,6.029,13.2990,4.60017,2470.32,2021-1-27T11:19:26Z
2021-01-27T09:21:27Z,42.805,6.029,13.2990,4.60021,2470.297,2021-1-27T11:22:30Z
2021-01-27T09:24:30Z,42.805,6.029,13.2990,4.60008,2470.25,2021-1-27T11:25:33Z
2021-01-27T09:27:34Z,42.805,6.029,13.2990,4.60011,2470.297,2021-1-27T11:28:36Z
2021-01-27T09:30:37Z,42.805,6.029,13.2989,4.60019,2470.273,2021-1-27T11:31:39Z
2021-01-27T09:33:40Z,42.805,6.029,13.2989,4.60009,2470.297,2021-1-27T11:34:42Z
2021-01-27T09:36:43Z,42.805,6.029,13.2991,4.60004,2470.264,2021-1-27T11:37:45Z
2021-01-27T09:39:46Z,42.805,6.029,13.2990,4.60000,2470.273,2021-1-27T11:40:48Z
2021-01-27T09:42:49Z,42.805,6.029,13.2991,4.60006,2470.273,2021-1-27T11:43:52Z
2021-01-27T09:45:52Z,42.805,6.029,13.2991,4.60002,2470.273,2021-1-27T11:46:55Z
2021-01-27T09:48:55Z,42.805,6.029,13.2998,4.60021,2470.287,2021-1-27T11:49:58Z
2021-01-27T09:51:59Z,42.805,6.029,13.2992,4.59999,2470.287,2021-1-27T11:53:01Z
2021-01-27T09:55:02Z,42.805,6.029,13.2989,4.60004,2470.264,2021-1-27T11:56:04Z
2021-01-27T09:58:05Z,42.805,6.029,13.2990,4.60007,2470.264,2021-1-27T11:59:07Z
2021-01-27T10:01:08Z,42.805,6.029,13.2984,4.60007,2470.31,2021-1-27T12:02:10Z
2021-01-27T10:04:11Z,42.805,6.029,13.2987,4.59999,2470.287,2021-1-27T12:05:13Z
2021-01-27T10:07:14Z,42.805,6.029,13.2990,4.60011,2470.227,2021-1-27T12:08:17Z
2021-01-27T10:10:17Z,42.805,6.029,13.2993,4.60004,2470.287,2021-1-27T12:11:20Z
2021-01-27T10:13:20Z,42.805,6.029,13.2985,4.60009,2470.264,2021-1-27T12:14:23Z
2021-01-27T10:16:24Z,42.805,6.029,13.2990,4.60006,2470.25,2021-1-27T12:17:26Z
2021-01-27T10:19:27Z,42.805,6.029,13.2991,4.60004,2470.287,2021-1-27T12:20:29Z
2021-01-27T10:22:30Z,42.805,6.029,13.2991,4.60004,2470.25,2021-1-27T12:23:32Z
2021-01-27T10:25:33Z,42.805,6.029,13.2990,4.60010,2470.25,2021-1-27T12:26:35Z
2021-01-27T10:28:36Z,42.805,6.029,13.2993,4.60006,2470.264,2021-1-27T12:29:38Z
2021-01-27T10:31:39Z,42.805,6.029,13.2989,4.60003,2470.24,2021-1-27T12:32:42Z
2021-01-27T10:34:42Z,42.805,6.029,13.2991,4.60008,2470.25,2021-1-27T12:35:45Z
2021-01-27T10:37:46Z,42.805,6.029,13.2988,4.60006,2470.24,2021-1-27T12:38:48Z
2021-01-27T10:40:49Z,42.805,6.029,13.2990,4.60000,2470.25,2021-1-27T12:41:51Z
2021-01-27T10:43:52Z,42.805,6.029,13.2990,4.60028,2470.24,2021-1-27T12:44:54Z
2021-01-27T10:46:55Z,42.805,6.029,13.2986,4.60014,2470.24,2021-1-27T12:47:57Z
2021-01-27T10:49:58Z,42.805,6.029,13.2985,4.60006,2470.25,2021-1-27T12:51:00Z
2021-01-27T10:53:01Z,42.805,6.029,13.2992,4.60014,2470.227,2021-1-27T12:54:03Z
2021-01-27T10:56:04Z,42.805,6.029,13.2988,4.60003,2470.25,2021-1-27T12:57:07Z
2021-01-27T10:59:07Z,42.805,6.029,13.2990,4.60003,2470.264,2021-1-27T13:00:10Z
2021-01-27T11:02:11Z,42.805,6.029,13.2988,4.60004,2470.25,2021-1-27T13:03:13Z
2021-01-27T11:05:14Z,42.805,6.029,13.2988,4.60005,2470.227,2021-1-27T13:06:16Z
2021-01-27T11:08:17Z,42.805,6.029,13.2990,4.60006,2470.24,2021-1-27T13:09:19Z
2021-01-27T11:11:20Z,42.805,6.029,13.2994,4.60016,2470.24,2021-1-27T13:12:22Z
2021-01-27T11:14:23Z,42.805,6.029,13.2990,4.59999,2470.227,2021-1-27T13:15:25Z
2021-01-27T11:17:26Z,42.805,6.029,13.2990,4.60009,2470.227,2021-1-27T13:18:29Z
2021-01-27T11:20:29Z,42.805,6.029,13.2996,4.60006,2470.227,2021-1-27T13:21:32Z
2021-01-27T11:23:32Z,42.805,6.029,13.2994,4.60005,2470.203,2021-1-27T13:24:35Z
2021-01-27T11:26:36Z,42.805,6.029,13.2991,4.60004,2470.203,2021-1-27T13:27:38Z
2021-01-27T11:29:39Z,42.805,6.029,13.2995,4.60006,2470.227,2021-1-27T13:30:41Z
2021-01-27T11:32:42Z,42.805,6.029,13.2990,4.60006,2470.24,2021-1-27T13:33:44Z
2021-01-27T11:35:45Z,42.805,6.029,13.2989,4.60006,2470.18,2021-1-27T13:36:47Z
2021-01-27T11:38:48Z,42.805,6.029,13.2990,4.60003,2470.18,2021-1-27T13:39:50Z
2021-01-27T11:41:51Z,42.805,6.029,13.2988,4.60001,2470.18,2021-1-27T13:42:54Z
2021-01-27T11:44:54Z,42.805,6.029,13.2991,4.60002,2470.18,2021-1-27T13:45:57Z
2021-01-27T11:47:57Z,42.805,6.029,13.2989,4.60026,2470.227,2021-1-27T13:49:00Z
2021-01-27T11:51:01Z,42.805,6.029,13.2996,4.60009,2470.18,2021-1-27T13:52:03Z
2021-01-27T11:54:04Z,42.805,6.029,13.2984,4.60005,2470.18,2021-1-27T13:55:06Z
2021-01-27T11:57:07Z,42.805,6.029,13.2988,4.60021,2470.166,2021-1-27T13:58:09Z
2021-01-27T12:00:10Z,42.805,6.029,13.2990,4.60005,2470.194,2021-1-27T14:01:12Z
2021-01-27T12:03:13Z,42.805,6.029,13.2989,4.60021,2470.156,2021-1-27T14:04:15Z
2021-01-27T12:06:16Z,42.805,6.029,13.2992,4.60019,2470.18,2021-1-27T14:07:19Z
2021-01-27T12:09:19Z,42.805,6.029,13.2990,4.59999,2470.194,2021-1-27T14:10:22Z
2021-01-27T12:12:22Z,42.805,6.029,13.2990,4.60000,2470.194,2021-1-27T14:13:25Z
2021-01-27T12:15:26Z,42.805,6.029,13.2993,4.60002,2470.18,2021-1-27T14:16:28Z
2021-01-27T12:18:29Z,42.805,6.029,13.2990,4.60003,2470.203,2021-1-27T14:19:31Z
2021-01-27T12:21:32Z,42.805,6.029,13.2984,4.60006,2470.171,2021-1-27T14:22:34Z
2021-01-27T12:24:35Z,42.805,6.029,13.2996,4.60001,2470.18,2021-1-27T14:25:37Z
2021-01-27T12:27:38Z,42.805,6.029,13.2986,4.59999,2470.171,2021-1-27T14:28:40Z
2021-01-27T12:30:41Z,42.805,6.029,13.2991,4.59998,2470.156,2021-1-27T14:31:44Z
2021-01-27T12:33:44Z,42.805,6.029,13.2988,4.59998,2470.18,2021-1-27T14:34:47Z
2021-01-27T12:36:47Z,42.805,6.029,13.2986,4.59999,2470.156,2021-1-27T14:37:50Z
2021-01-27T12:39:51Z,42.805,6.029,13.2992,4.60009,2470.171,2021-1-27T14:40:53Z
2021-01-27T12:42:54Z,42.805,6.029,13.2989,4.59998,2470.18,2021-1-27T14:43:56Z
2021-01-27T12:45:57Z,42.805,6.029,13.2990,4.60001,2470.156,2021-1-27T14:46:59Z
2021-01-27T12:49:00Z,42.805,6.029,13.2996,4.60013,2470.147,2021-1-27T14:50:02Z
2021-01-27T12:52:03Z,42.805,6.029,13.2989,4.60000,2470.171,2021-1-27T14:53:05Z
2021-01-27T12:55:06Z,42.805,6.029,13.2991,4.60005,2470.156,2021-1-27T14:56:09Z
2021-01-27T12:58:09Z,42.805,6.029,13.2990,4.59999,2470.147,2021-1-27T14:59:12Z
2021-01-27T13:01:12Z,42.805,6.029,13.2986,4.59996,2470.11,2021-1-27T15:02:15Z
2021-01-27T13:04:16Z,42.805,6.029,13.2986,4.59996,2470.11,2021-1-27T15:05:18Z
2021-01-27T13:07:19Z,42.805,6.029,13.2990,4.60000,2470.147,2021-1-27T15:08:21Z
2021-01-27T13:10:22Z,42.805,6.029,13.2985,4.59996,2470.156,2021-1-27T15:11:24Z
2021-01-27T13:13:25Z,42.805,6.029,13.2985,4.60002,2470.147,2021-1-27T15:14:27Z
2021-01-27T13:16:28Z,42.805,6.029,13.2991,4.59999,2470.156,2021-1-27T15:17:30Z
2021-01-27T13:19:31Z,42.805,6.029,13.2989,4.59999,2470.171,2021-1-27T15:20:34Z
2021-01-27T13:22:34Z,42.805,6.029,13.2990,4.60003,2470.156,2021-1-27T15:23:37Z
2021-01-27T13:25:37Z,42.805,6.029,13.2989,4.59996,2470.171,2021-1-27T15:26:40Z
2021-01-27T13:28:41Z,42.805,6.029,13.2990,4.59998,2470.156,2021-1-27T15:29:43Z
2021-01-27T13:31:44Z,42.805,6.029,13.2987,4.59999,2470.156,2021-1-27T15:32:46Z
2021-01-27T13:34:47Z,42.805,6.029,13.2992,4.60013,2470.156,2021-1-27T15:35:49Z
2021-01-27T13:37:50Z,42.805,6.029,13.2994,4.60012,2470.156,2021-1-27T15:38:52Z
2021-01-27T13:40:53Z,42.805,6.029,13.2998,4.60019,2470.156,2021-1-27T15:41:55Z
2021-01-27T13:43:56Z,42.805,6.029,13.2990,4.59999,2470.147,2021-1-27T15:44:59Z
2021-01-27T13:46:59Z,42.805,6.029,13.2988,4.60001,2470.133,2021-1-27T15:48:02Z
2021-01-27T13:50:03Z,42.805,6.029,13.2989,4.59999,2470.133,2021-1-27T15:51:05Z
2021-01-27T13:53:06Z,42.805,6.029,13.2987,4.60000,2470.171,2021-1-27T15:54:08Z
2021-01-27T13:56:09Z,42.805,6.029,13.2988,4.60004,2470.147,2021-1-27T15:57:11Z
2021-01-27T13:59:12Z,42.805,6.029,13.2990,4.60003,2470.156,2021-1-27T16:00:14Z
2021-01-27T14:02:15Z,42.805,6.029,13.2991,4.60000,2470.171,2021-1-27T16:03:17Z
2021-01-27T14:05:18Z,42.805,6.029,13.2988,4.59999,2470.156,2021-1-27T16:06:21Z
2021-01-27T14:08:21Z,42.805,6.029,13.2990,4.59999,2470.133,2021-1-27T16:09:24Z
2021-01-27T14:11:24Z,42.805,6.029,13.2986,4.59999,2470.156,2021-1-27T16:12:27Z
2021-01-27T14:14:28Z,42.805,6.029,13.2996,4.60001,2470.147,2021-1-27T16:15:30Z
2021-01-27T14:17:31Z,42.805,6.029,13.2993,4.60013,2470.171,2021-1-27T16:18:33Z
2021-01-27T14:20:34Z,42.805,6.029,13.2990,4.60003,2470.156,2021-1-27T16:21:36Z
2021-01-27T14:23:37Z,42.805,6.029,13.2986,4.59997,2470.156,2021-1-27T16:24:39Z
2021-01-27T14:26:40Z,42.805,6.029,13.2990,4.60006,2470.194,2021-1-27T16:27:42Z
2021-01-27T14:29:43Z,42.805,6.029,13.2987,4.59999,2470.194,2021-1-27T16:30:46Z
2021-01-27T14:32:46Z,42.805,6.029,13.2992,4.60011,2470.156,2021-1-27T16:33:49Z
2021-01-27T14:35:49Z,42.805,6.029,13.2989,4.60014,2470.156,2021-1-27T16:36:52Z
2021-01-27T14:38:53Z,42.805,6.029,13.2990,4.60006,2470.171,2021-1-27T16:39:55Z
2021-01-27T14:41:56Z,42.805,6.029,13.2986,4.59997,2470.171,2021-1-27T16:42:58Z
2021-01-27T14:44:59Z,42.805,6.029,13.2985,4.59995,2470.133,2021-1-27T16:46:01Z
2021-01-27T14:48:02Z,42.805,6.029,13.2986,4.59999,2470.156,2021-1-27T16:49:04Z
2021-01-27T14:51:05Z,42.805,6.029,13.2986,4.59996,2470.18,2021-1-27T16:52:07Z
2021-01-27T14:54:08Z,42.805,6.029,13.2993,4.60002,2470.18,2021-1-27T16:55:11Z
2021-01-27T14:57:11Z,42.805,6.029,13.2983,4.59994,2470.156,2021-1-27T16:58:14Z
2021-01-27T15:00:14Z,42.805,6.029,13.2990,4.60005,2470.156,2021-1-27T17:01:17Z
2021-01-27T15:03:18Z,42.805,6.029,13.2990,4.59996,2470.171,2021-1-27T17:04:20Z
2021-01-27T15:06:21Z,42.805,6.029,13.2989,4.60002,2470.171,2021-1-27T17:07:23Z
2021-01-27T15:09:24Z,42.805,6.029,13.2986,4.60004,2470.171,2021-1-27T17:10:26Z
2021-01-27T15:12:27Z,42.805,6.029,13.2988,4.60005,2470.18,2021-1-27T17:13:29Z
2021-01-27T15:15:30Z,42.805,6.029,13.2986,4.59999,2470.18,2021-1-27T17:16:32Z